Regional Weather Roundup
Issued by NWS

Home | Current Version | Previous Version | Text Only | Print | Product List | Glossary On
Versions: 1 2 3 4 5 6 7 8 9 10 11 12 13 14 15 16 17 18 19 20 21 22 23 24 25 26 27 28 29 30 31 32 33 34 35 36 37 38 39 40 41 42 43 44 45 46 47 48 49 50
000
ASHW40 PHFO 050743
RWRHI

WEATHER ROUNDUP FOR HAWAII
NATIONAL WEATHER SERVICE HONOLULU HI
900 PM HST FRI SEP 04 2015

THIS IS AN AUTOMATED REPORT THAT HAS NOT BEEN QUALITY CONTROLLED.

NOTE..."FAIR" INDICATES FEW OR NO CLOUDS BELOW 12,000 FEET WITH NO
SIGNIFICANT WEATHER AND/OR OBSTRUCTIONS TO VISIBILITY.

* - THESE SITES REPORT LIMITED FIELDS

HIZ001>004-050800-
KAUAI-NIIHAU-

CITY           SKY/WX    TMP DP  RH WIND       PRES   REMARKS
LIHUE APT      PTCLDY    81  73  78 E10       29.89R
PORT ALLEN*    NOT AVBL
POIPU*           N/A     81 N/A N/A NE5G12      N/A
PRINCEVILLE*     N/A     75 N/A N/A MISG        N/A
KOKOLE POINT*  NOT AVBL
MOLOAA DAIRY*    N/A     79  75  89 E6          N/A
WAIMEA HTS*      N/A     77  72  83 NE2G9       N/A
PUU OPAE*        N/A     72  66  83 E6          N/A
PUU LUA*       NOT AVBL
MAKAHA RIDGE*    N/A     73  68  83 CALM        N/A
$$

HIZ005>011-050800-
OAHU-

CITY           SKY/WX    TMP DP  RH WIND       PRES   REMARKS
HONOLULU       PTCLDY    82  72  71 NE7       29.87R
KALAELOA       CLEAR     78  72  81 CALM      29.88R
KANEOHE MCB    PTCLDY    80  72  76 E5        29.86R
WHEELER FIELD  FAIR      74  71  90 CALM      29.89R
BELLOWS*         N/A    N/A N/A N/A E12         N/A
KAHUKU*          N/A    N/A N/A N/A E6          N/A
WHEELER*       NOT AVBL
WAIANAE HARBOR NOT AVBL
DILLINGHAM*      N/A     77  73  88 MISG        N/A
KAHUKU TRN*      N/A     75  72  88 E3G12       N/A
KAWAILOA*        N/A     73  70  88 E9G15       N/A
KII*             N/A     81  75  83 E10         N/A
MAKUA RANGE*     N/A     79  73  83 SE3         N/A
OAHU FOREST NW   N/A     70  70 100 CALM        N/A
SCHOFIELD BRK*   N/A     73  70  88 MISG        N/A
SCHOFIELD S*   NOT AVBL
WAIANAE VLY*     N/A     86  84  94 MISG        N/A  HX 108
KUAOKALA*        N/A     75  72  88 E6          N/A
HONOULIUULI*   NOT AVBL
MOKUOLOE IS*     N/A    N/A N/A N/A MISG        N/A
PALEHUA*         N/A     70  68  94 NE7G14      N/A
WAIAWA PHB*    NOT AVBL
$$

HIZ012>013-050800-
MOLOKAI-

CITY           SKY/WX    TMP DP  RH WIND       PRES   REMARKS
MOLOKAI AIRPT  CLEAR     77  71  82 NE7       29.89R
KALAUPAPA      NOT AVBL
MAKAPULAPAI*     N/A     79  73  83 E12G17      N/A
MOLOKAI 1*       N/A     79  75  89 CALM        N/A
PUU ALII*        N/A     62  62  99 CALM        N/A
$$

HIZ016-050800-
KAHOOLAWE-

CITY           SKY/WX    TMP DP  RH WIND       PRES   REMARKS
KAHOOLAWE*       N/A     73 N/A N/A NE10G16     N/A
HAKIOAWA*        N/A     74  71  90 MISG      30.31
HONOKANAIA*      N/A     81  72  75 NE10G17   29.78R
KANELOA*         N/A     79  73  83 NE12G22   29.92R
KEALIALALO*      N/A     75  70  83 E10G22    29.88R
LUA MAKIKA*    NOT AVBL
$$

HIZ014>015-050800-
LANAI-

CITY           SKY/WX    TMP DP  RH WIND       PRES   REMARKS
LANAI CITY     FAIR      73  70  90 NE13      29.94R
LANAI 1*         N/A     73  72  94 NE14G20     N/A
$$

HIZ017>028-050800-
MAUI-

CITY           SKY/WX    TMP DP  RH WIND       PRES   REMARKS
KAHULUI        PTCLDY    79  71  76 NE7       29.88R
KAPALUA-W MAUI NOT AVBL
HANA AIRPORT   CLOUDY    75  73  94 CALM      29.92S
HANA*            N/A     77 N/A N/A SW1         N/A
HALEAKALA SUMM   N/A     48  37  66 NE7         N/A
MAALAEA BAY*   NOT AVBL
HALEAKALA*     NOT AVBL
KAUPO GAP*       N/A     63  55  77 NW3         N/A
KULA 1*          N/A     55  48  78 E5          N/A
$$

HIZ023>026-050800-
BIG ISLAND OF HAWAII COAST AND LOWER SLOPES-

CITY           SKY/WX    TMP DP  RH WIND       PRES   REMARKS
KAILUA KONA    MOCLDY    82  75  79 SE8       29.83R
HILO           MOCLDY    80  72  76 NW6       29.88R
HONOKAA*       NOT AVBL
KAWAIHAE MWT*    N/A     84 N/A N/A NW3         N/A
KAWAIHAE*        N/A     84 N/A N/A N3        29.85R
SOUTH POINT*     N/A     75 N/A N/A E1          N/A
UPOLU AIRPORT*   N/A    N/A N/A N/A NE12G17     N/A
KAMUELA*       NOT AVBL
HAKALAU*         N/A     52  40  63 SW2         N/A
KALOKO-HONOKO*   N/A     79  73  83 E3        29.84R
PALI 2*          N/A     70  66  88 N10         N/A
KEALAKOMO*       N/A     66  54  63 N15G23      N/A
KAUPULEHU*       N/A     75  66  73 SE5         N/A
KAPAPALA*        N/A     72  71  98 N2          N/A
LOWER KAHUKU*    N/A     68 N/A N/A CALM        N/A
PUHE CS*         N/A     82  70  65 NW2         N/A
PUHO CS*         N/A     75  32  20 E2          N/A
PTA KEAMUKU*     N/A    N/A N/A N/A CALM        N/A
WAIKOLOA*        N/A     73  66  78 E9G16       N/A
$$

HIZ027>028-050800-
BIG ISLAND OF HAWAII INTERIOR AND SUMMMITS-

CITY           SKY/WX    TMP DP  RH WIND       PRES   REMARKS
BRADSHAW FIELD PTCLDY    57  56  96 N2        30.24R
MK VISITOR CEN   N/A     48  41  76 N3          N/A
MAUNA KEA*       N/A     39  28  65 NW12        N/A
MAUNA LOA*       N/A     45  39  81 MISG        N/A
MAUNA LOA 1*   NOT AVBL
PTA KIPUKA*      N/A     57  55  94 E3          N/A
PTA RANGE 17*    N/A     57  55  94 SE1         N/A
PTA WEST*        N/A     61  59  94 SE8         N/A
NENE CABIN*      N/A     59  52  77 VRB2        N/A
AHUMOA*          N/A     58  50  74 E7          N/A
PTA PORTABLE*  NOT AVBL
PUU MALI*        N/A     57  36  44 E3          N/A
$$

HIC003-050800-
NORTHWEST ISLANDS-

CITY           SKY/WX    TMP DP  RH WIND       PRES   REMARKS
MIDWAY ISLAND  CLOUDY    81  75  83 E12       29.91R
MIDWAY NOS*      N/A     81 N/A N/A MISG      29.91R
FRENCH FRIGATE NOT AVBL
$$

PHZ110>124-180-050800-
BUOY REPORTS

STATION/POSITION TIME  TEMP    WIND        PRES    WAVE   SWELL
                       AIR SEA DIR/SP/G            HT/PER HT/DIR
                 (UTC) (F)     (DEG/KT/KT) (MB)    (FT/S) (FT/D)
BUOY 51001       0700   81 83   80/  6/ 10 1011.5
BUOY 51101       0700   81 83   60/  8/ 10 1010.9R   9/13   8/110
BUOY 51100       NOT AVBL
BUOY 51002       0700   83 85  110/ 10/ 12 1010.7R  11/14  11/ 80
BUOY 51003       0700   83 85  140/  4/  6 1010.6R   8/17   8/190
BUOY 51004       0627   82 83   10/ 10/ 12 1010.5R  11/13  11/ 70
BARBERS PT BUOY  NOT AVBL
WAIMEA BAY BUOY  0700      83                N/A     4/14   2/ 40
KAILUA BAY BUOY  0700      83                N/A     8/13   7/ 80
LANAI BUOY       NOT AVBL
BARBERS PT 2     0700      83                N/A     5/18   3/180
PAUWELA MAUI     0700      82                N/A    10/13   8/ 90
HILO             NOT AVBL
KANEOHE BAY BUOY 0700      82                N/A     6/13   3/ 70
HANALEI KAUAI    0700      84                N/A     8/11   5/ 90
KAHULUI HARBOR   0700   81 83   50/  8/ 11 1011.8R
HONOLULU HARBOR  0700   81 83   40/  2/  3 1011.8R
KILO NALU        NOT AVBL
HILO HARBOR      0700   79 82  290/  6/  9 1011.6R
MOKUOLOE         0700      86              1011.7S
NAWILIWILI       0700   78 84  220/  3/  3 1012.0R
WHOTS BUOY       NOT AVBL
BUOY 51028       NOT AVBL
$$

......................KEY........................................
  SKY/WX - SKY CONDITIONS/PRESENT WEATHER
  TMP    - TEMPERATURE IN FAHRENHEIT
  DWPT   - DEWPOINT IN FAHRENHEIT
  RH     - RELATIVE HUMIDITY IN PERCENT
  WIND   - DIRECTION AND SPEED /MPH FOR ISLANDS...KTS FOR BUOYS/
  PRES   - MEAN SEA LEVEL PRESSURE IN INCHES OF HG
  VSB    - VISIBILITY IN MILES
  HX     - HEAT INDEX
  WCI    - WIND CHILL INDEX
  VRB    - VARIABLE WIND DIRECTION
  N/A    - NOT AVAILABLE



USA.gov is the U.S. government's official web portal to all federal, state and local government web resources and services.